Date String (YYYY-MM-DD hh:mm:ss) UTC,Instrument flags,absolute air pressure of the measurement (hPa),sample flow rate (lpm),inlet stack bypass flow (lpm),air temperature of the measurement (°C),ambient temperature measured by the external sensor (°C),aerosol sample conditioner tube jacket temperature (°C),OPC LED temperature (°C),internal box temperature (°C),relative humidity of the measurement (%),span deviation,mass concentration of particles derived from Lorenz-Mie calculation of OPC scattering (μg/m³),mass concentration of particles derived from Lorenz-Mie calculation of OPC scattering (μg/m³),mass concentration of particles derived from Lorenz-Mie calculation of OPC scattering (μg/m³)
DateTimeUTC,F1_M11,P_M11,Q1_M11,Q2_M11,T1_M11,T2_M11,T3_M11,T4_M11,T5_M11,U1_M11,ZSPAN_M11,X2_M11,X0_M11,X1_M11
2024-04-05 10:00:00,SystemResetWarning,0821.2,5.00,000.00,024.8,024.0,000.0,033.4,026.7,013.8,0000.0,0003.95,0019.25,0002.35
2024-04-05 10:01:00,SystemResetWarning,0821.2,4.99,000.00,024.8,024.0,000.0,033.4,026.7,013.9,0000.0,0003.94,0019.63,0002.37
2024-04-05 10:02:00,SystemResetWarning,0821.2,4.99,000.00,024.8,024.0,000.0,033.4,026.7,013.8,0000.0,0003.88,0017.87,0002.35
2024-04-05 10:03:00,SystemResetWarning,0821.2,5.01,000.00,024.8,024.0,000.0,033.4,026.7,013.9,0000.0,0003.78,0018.24,0002.33
2024-04-05 10:04:00,SystemResetWarning,0821.3,5.01,000.00,024.8,024.0,000.0,033.4,026.7,013.8,0000.0,0003.72,0018.11,0002.33
2024-04-05 10:05:00,SystemResetWarning,0821.2,5.01,000.00,024.8,024.0,000.0,033.4,026.7,013.8,0000.0,0003.70,0017.39,0002.31
2024-04-05 10:06:00,SystemResetWarning,0821.3,4.99,000.00,024.8,024.0,000.0,033.4,026.7,013.8,0000.0,0003.64,0016.04,0002.30
2024-04-05 10:07:00,SystemResetWarning,0821.3,4.99,000.00,024.8,024.0,000.0,033.4,026.7,013.8,0000.0,0003.61,0015.66,0002.30
2024-04-05 10:08:00,SystemResetWarning,0821.3,5.00,000.00,024.8,024.0,000.0,033.4,026.7,013.9,0000.0,0003.58,0016.33,0002.30
2024-04-05 10:09:00,SystemResetWarning,0821.3,5.01,000.00,024.8,024.0,000.0,033.4,026.7,013.8,0000.0,0003.51,0016.27,0002.28
2024-04-05 10:10:00,SystemResetWarning,0821.3,5.01,000.00,024.8,024.0,000.0,033.4,026.6,013.7,0000.0,0003.47,0016.08,0002.29
2024-04-05 10:11:00,SystemResetWarning,0821.3,4.99,000.00,024.8,024.0,000.0,033.4,026.7,013.6,0000.0,0003.44,0015.86,0002.29
2024-04-05 10:12:00,SystemResetWarning,0821.3,4.99,000.00,024.8,023.9,000.0,033.4,026.6,013.6,0000.0,0003.36,0014.50,0002.29
2024-04-05 10:13:00,SystemResetWarning,0821.3,5.00,000.00,024.8,023.9,000.0,033.4,026.6,013.6,0000.0,0003.37,0014.92,0002.30
2024-04-05 10:14:00,SystemResetWarning,0821.4,4.99,000.00,024.8,023.9,000.0,033.4,026.6,013.6,0000.0,0003.41,0014.65,0002.32
2024-04-05 10:15:00,SystemResetWarning,0821.3,4.99,000.00,024.8,023.9,000.0,033.4,026.6,013.5,0000.0,0003.45,0014.49,0002.33
2024-04-05 10:16:00,SystemResetWarning,0821.3,5.00,000.00,024.8,023.9,000.0,033.4,026.6,013.4,0000.0,0003.50,0014.54,0002.35
2024-04-05 10:17:00,SystemResetWarning,0821.4,5.01,000.00,024.8,023.9,000.0,033.4,026.6,013.3,0000.0,0003.55,0015.15,0002.37
2024-04-05 10:18:00,SystemResetWarning,0821.4,5.00,000.00,024.7,023.9,000.0,033.4,026.6,013.3,0000.0,0003.57,0015.05,0002.36
2024-04-05 10:19:00,SystemResetWarning,0821.4,5.01,000.00,024.7,023.9,000.0,033.4,026.6,013.2,0000.0,0003.66,0015.25,0002.36
2024-04-05 10:20:00,SystemResetWarning,0821.4,5.01,000.00,024.7,023.9,000.0,033.4,026.6,013.2,0000.0,0003.67,0015.28,0002.36
2024-04-05 10:21:00,SystemResetWarning,0821.5,4.99,000.00,024.7,023.9,000.0,033.4,026.6,013.3,0000.0,0003.69,0015.30,0002.34
2024-04-05 10:22:00,SystemResetWarning,0821.5,4.98,000.00,024.7,023.9,000.0,033.4,026.6,013.3,0000.0,0003.76,0015.60,0002.34
2024-04-05 10:23:00,SystemResetWarning,0821.4,4.99,000.00,024.7,023.9,000.0,033.4,026.6,013.5,0000.0,0003.84,0015.51,0002.35
2024-04-05 10:24:00,SystemResetWarning,0821.4,5.00,000.00,024.7,023.9,000.0,033.4,026.6,013.7,0000.0,0003.87,0015.38,0002.36
2024-04-05 10:25:00,SystemResetWarning,0821.4,5.00,000.00,024.7,023.9,000.0,033.4,026.6,013.9,0000.0,0003.88,0015.19,0002.38
2024-04-05 10:26:00,SystemResetWarning,0821.5,5.00,000.00,024.7,023.9,000.0,033.4,026.6,014.1,0000.0,0003.89,0014.49,0002.38
2024-04-05 10:27:00,SystemResetWarning,0821.4,5.00,000.00,024.7,023.9,000.0,033.4,026.6,014.3,0000.0,0003.86,0013.53,0002.40
2024-04-05 10:28:00,SystemResetWarning,0821.3,5.00,000.00,024.7,023.9,000.0,033.4,026.6,014.4,0000.0,0003.85,0013.00,0002.41
2024-04-05 10:29:00,SystemResetWarning,0821.4,5.00,000.00,024.7,023.9,000.0,033.4,026.6,014.5,0000.0,0003.87,0013.02,0002.43
2024-04-05 10:30:00,SystemResetWarning,0821.3,5.01,000.00,024.7,023.9,000.0,033.4,026.6,014.6,0000.0,0003.83,0012.00,0002.47
2024-04-05 10:31:00,SystemResetWarning,0821.3,5.00,000.00,024.7,023.9,000.0,033.4,026.6,014.8,0000.0,0003.83,0011.59,0002.52
2024-04-05 10:32:00,SystemResetWarning,0821.3,5.00,000.00,024.7,023.9,000.0,033.4,026.6,015.0,0000.0,0003.88,0011.84,0002.56
2024-04-05 10:33:00,SystemResetWarning,0821.4,4.99,000.00,024.7,023.9,000.0,033.4,026.6,014.8,0000.0,0003.89,0011.32,0002.58
2024-04-05 10:34:00,SystemResetWarning,0821.3,4.99,000.00,024.7,023.8,000.0,033.4,026.6,014.7,0000.0,0003.89,0011.21,0002.60
2024-04-05 10:35:00,SystemResetWarning,0821.3,4.99,000.00,024.7,023.8,000.0,033.3,026.6,014.6,0000.0,0003.93,0011.83,0002.63
2024-04-05 10:36:00,SystemResetWarning,0821.4,5.00,000.00,024.7,023.8,000.0,033.3,026.5,014.7,0000.0,0003.93,0012.26,0002.63
2024-04-05 10:37:00,SystemResetWarning,0821.4,5.00,000.00,024.7,023.8,000.0,033.3,026.5,014.6,0000.0,0003.92,0013.65,0002.65
2024-04-05 10:38:00,SystemResetWarning,0821.5,5.01,000.00,024.7,023.8,000.0,033.3,026.6,014.7,0000.0,0003.93,0012.98,0002.66
2024-04-05 10:39:00,SystemResetWarning,0821.9,5.00,000.00,024.7,023.8,000.0,033.3,026.5,014.5,0000.0,0003.98,0014.17,0002.69
2024-04-05 10:40:00,SystemResetWarning,0822.0,5.00,000.00,024.7,023.8,000.0,033.3,026.5,014.4,0000.0,0003.98,0015.18,0002.71
2024-04-05 10:41:00,SystemResetWarning,0822.0,5.00,000.00,024.7,023.8,000.0,033.3,026.5,014.4,0000.0,0003.99,0016.03,0002.71
2024-04-05 10:42:00,SystemResetWarning,0822.0,5.00,000.00,024.7,023.8,000.0,033.3,026.5,014.3,0000.0,0004.01,0017.66,0002.71
2024-04-05 10:43:00,SystemResetWarning,0822.0,5.00,000.00,024.6,023.8,000.0,033.3,026.5,014.3,0000.0,0004.03,0019.64,0002.70
2024-04-05 10:44:00,SystemResetWarning,0822.0,5.00,000.00,024.6,023.8,000.0,033.3,026.5,014.3,0000.0,0004.03,0020.07,0002.73
2024-04-05 10:45:00,SystemResetWarning,0821.6,5.00,000.00,024.6,023.8,000.0,033.3,026.5,014.2,0000.0,0004.05,0020.27,0002.74
2024-04-05 10:46:00,SystemResetWarning,0821.4,4.99,000.00,024.6,023.8,000.0,033.3,026.5,014.2,0000.0,0004.02,0020.20,0002.70
2024-04-05 10:47:00,SystemResetWarning,0821.3,4.99,000.00,024.6,023.7,000.0,033.3,026.5,014.2,0000.0,0003.99,0019.96,0002.68
2024-04-05 10:48:00,SystemResetWarning,0821.3,5.00,000.00,024.6,023.7,000.0,033.3,026.5,014.3,0000.0,0003.98,0018.75,0002.67
2024-04-05 10:49:00,SystemResetWarning,0821.4,5.00,000.00,024.6,023.7,000.0,033.3,026.5,014.3,0000.0,0003.98,0019.52,0002.67
2024-04-05 10:50:00,SystemResetWarning,0821.3,5.00,000.00,024.6,023.7,000.0,033.3,026.5,014.3,0000.0,0003.93,0018.90,0002.66
2024-04-05 10:51:00,SystemResetWarning,0821.3,5.00,000.00,024.6,023.7,000.0,033.3,026.5,014.4,0000.0,0003.93,0018.23,0002.64
2024-04-05 10:52:00,SystemResetWarning,0821.3,5.01,000.00,024.6,023.7,000.0,033.3,026.4,014.3,0000.0,0003.96,0019.07,0002.63
2024-04-05 10:53:00,SystemResetWarning,0821.3,5.00,000.00,024.6,023.7,000.0,033.3,026.4,014.3,0000.0,0003.97,0019.24,0002.62
2024-04-05 10:54:00,SystemResetWarning,0821.4,5.00,000.00,024.6,023.7,000.0,033.2,026.4,014.3,0000.0,0003.97,0019.15,0002.61
2024-04-05 10:55:00,SystemResetWarning,0821.3,4.99,000.00,024.6,023.7,000.0,033.2,026.4,014.5,0000.0,0003.95,0018.86,0002.61
2024-04-05 10:56:00,SystemResetWarning,0821.3,5.01,000.00,024.6,023.7,000.0,033.2,026.4,014.5,0000.0,0003.92,0018.98,0002.60
2024-04-05 10:57:00,SystemResetWarning,0821.3,5.00,000.00,024.6,023.7,000.0,033.2,026.4,014.6,0000.0,0003.92,0019.65,0002.62
2024-04-05 10:58:00,SystemResetWarning,0821.3,5.00,000.00,024.5,023.7,000.0,033.2,026.4,014.7,0000.0,0003.94,0020.78,0002.65
2024-04-05 10:59:00,SystemResetWarning,0821.3,5.00,000.00,024.5,023.7,000.0,033.2,026.4,014.8,0000.0,0003.98,0021.88,0002.65
